Location: Unspecified
(0.0000°N, 0.0000°E)
Time: 22:36:09
(UTC+02:00)

Ariane H10-3 - Visible Passes

Search period start: 23 May 2018 00:00
Search period end: 02 June 2018 00:00
Orbit: 158 x 15763 km, 7.2° (Epoch: 22 May)

Date Brightness Start Highest point End Pass type
(mag) Time Alt. Az. Time Alt. Az. Time Alt. Az.
23 May 9.1 01:58:26 10° W 04:25:02 82° N 05:37:09 10° E visible
23 May 6.5 20:31:36 10° W 20:40:41 84° N 22:20:56 10° E visible
24 May 9.0 01:38:53 10° W 03:49:03 81° N 05:17:50 10° E visible
24 May 6.3 20:12:16 10° W 20:20:12 85° N 21:37:19 10° E visible
25 May 8.9 01:17:27 10° W 03:05:46 81° N 04:56:10 10° E visible
25 May 6.0 19:51:00 10° W 19:57:49 85° N 20:54:33 10° E visible
26 May 8.8 00:54:11 10° W 02:18:28 80° N 04:32:03 10° E visible
26 May 7.0 07:35:24 10° W 09:28:56 79° SSW 09:38:55 10° ESE visible
26 May 5.6 19:27:48 10° W 19:33:36 87° N 20:14:31 10° E visible
27 May 8.7 00:29:06 10° W 01:32:35 79° N 04:05:20 10° E visible
27 May 7.3 06:44:47 10° W 09:02:31 81° S 09:14:24 10° ESE visible
28 May 8.7 00:02:15 10° W 00:49:56 79° N 03:35:43 10° E visible
28 May 7.7 05:57:43 10° W 08:33:27 83° S 08:47:49 10° ESE visible
28 May 8.6 23:33:38 10° W 00:09:42 78° N 03:02:51 10° E visible
29 May 8.0 05:13:54 10° W 08:01:22 85° S 08:19:10 10° E visible
29 May 8.4 23:03:15 10° W 23:30:43 78° N 02:26:02 10° E visible
30 May 8.3 04:32:05 10° W 07:25:45 87° S 07:48:23 10° E visible
30 May 8.0 22:31:07 10° W 22:52:09 77° N 01:44:05 10° E visible
31 May 8.7 03:51:10 10° W 06:45:42 89° S 07:15:26 10° E visible
31 May 7.6 21:57:16 10° W 22:13:23 77° N 00:54:48 10° E visible
01 Jun 9.1 03:10:26 10° W 05:59:30 89° N 06:40:12 10° E visible
01 Jun 7.1 21:21:39 10° W 21:34:01 76° N 23:53:43 10° E visible
